Location: Hamilton
(37.7830°S, 175.2830°E)
Time: 23:05:46
(UTC+13:00)

Cosmos 2322 - Pass Details

Date: 24 January 2019
Orbit: 839 x 856 km, 71.0° (Epoch: 15 February)

Event Time Altitude Azimuth Distance (km) Brightness Sun altitude
Exits shadow 23:18:13 28° 323° (NW) 1,545 4.9 -25.0°
Maximum altitude 23:21:17 69° 246° (WSW) 914 3.9 -25.4°
Drops below altitude 10° 23:27:00 10° 163° (SSE) 2,491 6.6 -26.0°
Sets 23:29:29 0° 160° (SSE) 3,431 7.4 -26.2°
